Hourly Data Report for September 17, 2017

All times are specified in Local Standard Time (LST). Add 1 hour to adjust for Daylight Saving Time where and when it is observed.

OTTAWA INTL A
ONTARIO

45°19'00.000" N
75°40'00.000" W
114.90 m
6106001
71628
YOW

Download Data

Hourly Data (September 2017)
Hourly Data Report for September 17, 2017
Temp Definition
°C
Dew Point Temp Definition
°C
Rel Hum Definition
%
Wind Dir Definition
10's deg

Wind Spd Definition
km/h
Visibility Definition
km
Stn Press Definition
kPa
Hmdx Definition


Wind Chill Definition


Weather Definition


TIME
00:00 Legend Double Dagger 18.5 17.0 91 20 6 24.1 100.69     LegendNANA
01:00 Legend Double Dagger 17.7 16.6 93 20 10 24.1 100.69     Mainly Clear
02:00 Legend Double Dagger 17.3 16.4 95 19 9 24.1 100.64     LegendNANA
03:00 Legend Double Dagger 16.7 16.1 96 20 9 24.1 100.62     LegendNANA
04:00 Legend Double Dagger 16.5 15.8 96 20 5 24.1 100.68     Clear
05:00 Legend Double Dagger 16.1 15.6 97 19 7 24.1 100.71     LegendNANA
06:00 Legend Double Dagger 15.7 15.3 97 20 5 24.1 100.75     LegendNANA
07:00 Legend Double Dagger 17.0 16.4 96 21 5 24.1 100.79     Mostly Cloudy
08:00 Legend Double Dagger 19.0 17.2 89 22 4 24.1 100.78     LegendNANA
09:00 Legend Double Dagger 21.8 17.6 77 23 5 24.1 100.76 28   LegendNANA
10:00 Legend Double Dagger 24.3 17.7 66 17 4 24.1 100.73 30   Clear
11:00 Legend Double Dagger 26.8 18.0 58 20 8 24.1 100.68 33   LegendNANA
12:00 Legend Double Dagger 27.5 17.1 53 26 13 24.1 100.64 33   LegendNANA
13:00 Legend Double Dagger 27.7 17.3 52 17 10 24.1 100.59 33   Mainly Clear
14:00 Legend Double Dagger 28.3 15.5 45 21 17 24.1 100.56 33   LegendNANA
15:00 Legend Double Dagger 27.4 16.6 51 15 12 24.1 100.50 32   LegendNANA
16:00 Legend Double Dagger 26.9 17.5 56 14 8 24.1 100.48 33   Mainly Clear
17:00 Legend Double Dagger 26.0 16.2 54 18 10 24.1 100.47 31   LegendNANA
18:00 Legend Double Dagger 22.9 15.9 64 17 8 24.1 100.46 27   LegendNANA
19:00 Legend Double Dagger 21.8 15.9 69 17 7 24.1 100.50 26   Mainly Clear
20:00 Legend Double Dagger 20.6 15.7 73 19 7 24.1 100.54 25   LegendNANA
21:00 Legend Double Dagger 20.2 16.3 78 19 7 24.1 100.54 25   LegendNANA
22:00 Legend Double Dagger 18.9 16.1 84 20 7 24.1 100.57     Clear
23:00 Legend Double Dagger 18.4 16.2 87 20 6 24.1 100.55     LegendNANA

Notes on Data Quality.

Legend

  • E = Estimated
  • M = Missing
  • NA = Not Available
  • ‡ = Partner data that is not subject to review by the National Climate Archives
Date modified: